Flag for Colombia Weather past 2 weeks in Villavicencio, Colombia

Now
57 °F

Scattered showers. Scattered clouds.


Feels Like: 57 °F
Forecast: 67 / 82 °F
Wind: 5 mph from Northeast

Location: Bogota / Eldorado

Current Time: Jul 29, 2015 at 8:52:11 AM

Latest Report: Jul 29, 2015 at 8:00 AM


Visibility: N/A

Pressure: 30.35 "Hg

Humidity: 77%

Dew point: 50 °F

Location of VillavicencioLocation

Historic Weather in Villavicencio — Graph

°F

Villavicencio temperature yesterday

Maximum temperature yesterday: 66 °F (at 1:00 PM)
Minimum temperature yesterday: 48 °F (at 4:00 AM)
Average temperature yesterday: 57 °F

Past Weeks' High & Low Weather Summary

 TemperatureHumidityPressure
High70 °F (Jul 14, 2:00 PM)100% (Jul 15, 6:00 AM)30.44 "Hg (Jul 15, 6:00 AM)
Low37 °F (Jul 19, 8:00 PM)40% (Jul 14, 3:00 PM)30.24 "Hg (Jul 27, 4:00 PM)
Average57 °F73%30.35 "Hg
* Reported Jul 14 7:00 AM — Jul 29 7:00 AM, Villavicencio, Weather by CustomWeather, © 2015

Note: Actual official high and low records may vary slightly from our data, if they occured in-between our weather recording intervals... More about our weather records

Advertising

Villavicencio weather history for previous 24 hours

 ConditionsComfort  
Time TempWeatherWind HumidityBarometerVisibility
7:00 AM
Wed, Jul 29
52 °FScattered showers. Partly sunny.7 mph88%30.35 "HgN/A
6:00 AM52 °FPartly sunny.2 mph88%30.32 "HgN/A
5:30 AM52 °FPassing clouds.6 mph88%30.32 "HgN/A
5:00 AM52 °FPassing clouds.8 mph88%30.31 "HgN/A
4:00 AM50 °FPassing clouds.10 mph94%30.30 "HgN/A
3:00 AM52 °FPassing clouds.8 mph82%30.32 "HgN/A
2:00 AM52 °FPassing clouds.5 mph88%30.34 "HgN/A
1:00 AM52 °FPassing clouds.7 mph82%30.35 "HgN/A
12:00 AM50 °FPassing clouds.12 mph88%30.35 "HgN/A
11:00 PM
Tue, Jul 28
52 °FPassing clouds.8 mph88%30.35 "HgN/A
10:00 PM52 °FPassing clouds.5 mph94%30.36 "HgN/A
9:00 PM54 °FPassing clouds.6 mph88%30.35 "Hg6 mi
8:00 PM55 °FPassing clouds.8 mph82%30.34 "Hg6 mi
7:00 PM57 °FScattered showers. Passing clouds.9 mph72%30.30 "HgN/A
6:00 PM57 °FScattered showers. Scattered clouds.12 mph72%30.28 "Hg6 mi
5:00 PM64 °FScattered clouds.10 mph49%30.25 "HgN/A
4:00 PM66 °FPartly sunny.14 mph49%30.24 "HgN/A
3:00 PM64 °FScattered showers. Scattered clouds.12 mph49%30.24 "Hg6 mi
2:00 PM64 °FScattered clouds.12 mph56%30.26 "HgN/A
1:00 PM66 °FScattered showers. Partly sunny.8 mph46%30.28 "HgN/A
12:00 PM64 °FScattered showers. Broken clouds.12 mph56%30.32 "HgN/A
11:00 AM63 °FScattered showers. Partly sunny.9 mph56%30.33 "HgN/A
10:00 AM61 °FPartly sunny.9 mph59%30.34 "HgN/A
9:00 AM59 °FScattered clouds.9 mph63%30.34 "HgN/A
8:00 AM57 °FScattered clouds.7 mph72%30.34 "HgN/A
Weather by CustomWeather, © 2015

See weather overviewHow to use our weather pages